• Em Portugal
  • Lista de países
  • Para 7 dias
  • Temperatura da água
  • Mapas de satélite
  • Mapa do tempo
  • Widgets de tempo
  • user-avatar
    Iniciar Sessão

    Previsão horária em Pegu

    Hoje, 20 Outubro, Sexta-feira

    Tempo Temperatura Precipitação Vento Pressão Humidade
    00:00 +27°C° 1,1 mm 2 m/s 752 mmHg 87%
    01:00 +27°C° 0,4 mm 2 m/s 751 mmHg 87%
    02:00 +27°C° 0,4 mm 2 m/s 751 mmHg 88%
    03:00 +26°C° 0,4 mm 3 m/s 751 mmHg 89%
    04:00 +26°C° 0 mm 2 m/s 751 mmHg 89%
    05:00 +26°C° 0 mm 2 m/s 751 mmHg 89%
    06:00 +26°C° 0 mm 2 m/s 751 mmHg 90%
    07:00 +27°C° 0 mm 3 m/s 752 mmHg 85%
    08:00 +28°C° 0 mm 3 m/s 752 mmHg 80%
    09:00 +30°C° 0 mm 3 m/s 753 mmHg 75%
    10:00 +32°C° 0 mm 4 m/s 752 mmHg 72%
    11:00 +33°C° 0 mm 4 m/s 751 mmHg 68%
    12:00 +33°C° 0 mm 4 m/s 751 mmHg 65%
    13:00 +34°C° 0,1 mm 4 m/s 750 mmHg 65%
    14:00 +34°C° 0,1 mm 3 m/s 749 mmHg 64%
    15:00 +34°C° 0,1 mm 3 m/s 749 mmHg 64%
    16:00 +33°C° 0,2 mm 3 m/s 749 mmHg 68%
    17:00 +31°C° 0,2 mm 2 m/s 749 mmHg 72%
    18:00 +30°C° 0,2 mm 2 m/s 750 mmHg 76%
    19:00 +29°C° 0,6 mm 2 m/s 750 mmHg 78%
    20:00 +29°C° 0,6 mm 2 m/s 751 mmHg 80%
    21:00 +28°C° 0,6 mm 2 m/s 751 mmHg 82%
    22:00 +28°C° 0,5 mm 2 m/s 751 mmHg 83%
    23:00 +28°C° 0,5 mm 2 m/s 751 mmHg 84%

    Amanhã, 21 Outubro, Sábado

    Tempo Temperatura Precipitação Vento Pressão Humidade
    00:00 +27°C° 0,5 mm 2 m/s 751 mmHg 85%
    01:00 +27°C° 0 mm 2 m/s 751 mmHg 86%
    02:00 +27°C° 0 mm 2 m/s 750 mmHg 87%
    03:00 +26°C° 0 mm 2 m/s 750 mmHg 87%
    04:00 +26°C° 0 mm 2 m/s 750 mmHg 88%
    05:00 +26°C° 0 mm 2 m/s 750 mmHg 89%
    06:00 +26°C° 0 mm 2 m/s 751 mmHg 90%
    07:00 +27°C° 0 mm 3 m/s 751 mmHg 85%
    08:00 +29°C° 0 mm 3 m/s 751 mmHg 79%
    09:00 +30°C° 0 mm 4 m/s 752 mmHg 74%
    10:00 +32°C° 0,2 mm 4 m/s 751 mmHg 71%
    11:00 +33°C° 0,2 mm 4 m/s 750 mmHg 68%
    12:00 +34°C° 0,2 mm 4 m/s 750 mmHg 65%
    13:00 +34°C° 0,1 mm 4 m/s 749 mmHg 65%
    14:00 +34°C° 0,1 mm 4 m/s 748 mmHg 64%
    15:00 +34°C° 0,1 mm 3 m/s 747 mmHg 64%
    16:00 +33°C° 0,5 mm 3 m/s 747 mmHg 69%
    17:00 +31°C° 0,5 mm 3 m/s 748 mmHg 74%
    18:00 +29°C° 0,5 mm 2 m/s 748 mmHg 79%
    19:00 +29°C° 0,2 mm 3 m/s 749 mmHg 81%
    20:00 +29°C° 0,2 mm 3 m/s 749 mmHg 83%
    21:00 +28°C° 0,2 mm 3 m/s 750 mmHg 85%
    22:00 +28°C° 0 mm 3 m/s 749 mmHg 86%
    23:00 +27°C° 0 mm 3 m/s 749 mmHg 87%

    Depois de amanhã, 22 Outubro, Domingo

    Tempo Temperatura Precipitação Vento Pressão Humidade
    00:00 +27°C° 0 mm 3 m/s 749 mmHg 88%
    01:00 +27°C° 0 mm 3 m/s 749 mmHg 88%
    02:00 +27°C° 0 mm 3 m/s 748 mmHg 89%
    03:00 +26°C° 0 mm 3 m/s 748 mmHg 89%
    04:00 +26°C° 0 mm 3 m/s 748 mmHg 90%
    05:00 +26°C° 0 mm 3 m/s 749 mmHg 90%
    06:00 +26°C° 0 mm 3 m/s 749 mmHg 90%
    07:00 +27°C° 0 mm 4 m/s 750 mmHg 85%
    08:00 +29°C° 0 mm 4 m/s 750 mmHg 80%
    09:00 +30°C° 0 mm 5 m/s 750 mmHg 74%
    10:00 +32°C° 0 mm 5 m/s 750 mmHg 71%
    11:00 +33°C° 0 mm 5 m/s 749 mmHg 67%
    12:00 +34°C° 0 mm 4 m/s 748 mmHg 63%
    13:00 +34°C° 0 mm 4 m/s 748 mmHg 63%
    14:00 +34°C° 0 mm 3 m/s 747 mmHg 63%
    15:00 +34°C° 0 mm 3 m/s 747 mmHg 62%
    16:00 +32°C° 0,1 mm 2 m/s 747 mmHg 66%
    17:00 +31°C° 0,1 mm 2 m/s 747 mmHg 69%
    18:00 +30°C° 0,1 mm 1 m/s 747 mmHg 73%
    19:00 +30°C° 0,4 mm 1 m/s 748 mmHg 75%
    20:00 +29°C° 0,4 mm 2 m/s 748 mmHg 77%
    21:00 +29°C° 0,4 mm 2 m/s 749 mmHg 80%
    22:00 +28°C° 1,1 mm 2 m/s 749 mmHg 82%
    23:00 +28°C° 1,1 mm 2 m/s 749 mmHg 84%

    23 Outubro, Segunda-feira

    Tempo Temperatura Precipitação Vento Pressão Humidade
    00:00 +28°C° 1,1 mm 2 m/s 749 mmHg 85%
    01:00 +27°C° 2,3 mm 2 m/s 748 mmHg 87%
    02:00 +27°C° 2,3 mm 2 m/s 748 mmHg 89%
    03:00 +26°C° 2,3 mm 2 m/s 748 mmHg 91%
    04:00 +26°C° 1,6 mm 2 m/s 749 mmHg 92%
    05:00 +26°C° 1,6 mm 2 m/s 749 mmHg 92%
    06:00 +26°C° 1,6 mm 2 m/s 750 mmHg 92%
    07:00 +27°C° 1,2 mm 2 m/s 750 mmHg 89%
    08:00 +28°C° 1,2 mm 2 m/s 750 mmHg 86%
    09:00 +29°C° 1,2 mm 3 m/s 751 mmHg 83%
    10:00 +30°C° 1,2 mm 3 m/s 750 mmHg 79%
    11:00 +31°C° 1,2 mm 3 m/s 750 mmHg 75%
    12:00 +31°C° 1,2 mm 3 m/s 749 mmHg 71%
    13:00 +32°C° 0,2 mm 2 m/s 748 mmHg 69%
    14:00 +32°C° 0,2 mm 1 m/s 748 mmHg 67%
    15:00 +32°C° 0,2 mm 1 m/s 747 mmHg 65%
    16:00 +31°C° 0 mm 1 m/s 748 mmHg 69%
    17:00 +30°C° 0 mm 1 m/s 748 mmHg 72%
    18:00 +30°C° 0 mm 1 m/s 749 mmHg 76%
    19:00 +29°C° 0 mm 1 m/s 749 mmHg 78%
    20:00 +29°C° 0 mm 1 m/s 750 mmHg 79%
    21:00 +28°C° 0 mm 1 m/s 750 mmHg 81%
    22:00 +28°C° 0,8 mm 1 m/s 750 mmHg 83%
    23:00 +28°C° 0,8 mm 1 m/s 750 mmHg 85%

    24 Outubro, Terça-feira

    Tempo Temperatura Precipitação Vento Pressão Humidade
    00:00 +27°C° 0,8 mm 1 m/s 750 mmHg 87%
    01:00 +27°C° 1,7 mm 1 m/s 750 mmHg 88%
    02:00 +27°C° 1,7 mm 1 m/s 750 mmHg 89%
    03:00 +27°C° 1,7 mm 1 m/s 750 mmHg 90%
    04:00 +26°C° 1,7 mm 1 m/s 751 mmHg 90%
    05:00 +26°C° 1,7 mm 1 m/s 751 mmHg 90%
    06:00 +26°C° 1,7 mm 1 m/s 752 mmHg 90%
    07:00 +28°C° 0,7 mm 1 m/s 752 mmHg 86%
    08:00 +29°C° 0,7 mm 1 m/s 753 mmHg 82%
    09:00 +30°C° 0,7 mm 1 m/s 753 mmHg 78%
    10:00 +31°C° 0,9 mm 1 m/s 752 mmHg 74%
    11:00 +31°C° 0,9 mm 1 m/s 752 mmHg 70%
    12:00 +32°C° 0,9 mm 1 m/s 751 mmHg 65%
    13:00 +32°C° 0,1 mm 1 m/s 751 mmHg 65%
    14:00 +32°C° 0,1 mm 1 m/s 750 mmHg 65%
    15:00 +33°C° 0,1 mm 1 m/s 750 mmHg 65%
    16:00 +31°C° 0 mm 2 m/s 750 mmHg 69%
    17:00 +30°C° 0 mm 2 m/s 751 mmHg 73%
    18:00 +29°C° 0 mm 2 m/s 751 mmHg 77%
    19:00 +29°C° 0,1 mm 2 m/s 751 mmHg 79%
    20:00 +28°C° 0,1 mm 2 m/s 752 mmHg 80%
    21:00 +28°C° 0,1 mm 2 m/s 752 mmHg 81%
    22:00 +28°C° 0,2 mm 2 m/s 752 mmHg 82%
    23:00 +28°C° 0,2 mm 2 m/s 752 mmHg 83%

    25 Outubro, Quarta-feira

    Tempo Temperatura Precipitação Vento Pressão Humidade
    00:00 +27°C° 0,2 mm 2 m/s 752 mmHg 84%
    01:00 +27°C° 0,3 mm 2 m/s 752 mmHg 84%
    02:00 +27°C° 0,3 mm 2 m/s 752 mmHg 85%
    03:00 +27°C° 0,3 mm 1 m/s 752 mmHg 86%
    04:00 +27°C° 0,9 mm 2 m/s 752 mmHg 86%
    05:00 +26°C° 0,9 mm 2 m/s 753 mmHg 87%
    06:00 +26°C° 0,9 mm 2 m/s 753 mmHg 88%
    07:00 +28°C° 0,9 mm 2 m/s 753 mmHg 83%
    08:00 +29°C° 0,9 mm 3 m/s 754 mmHg 78%
    09:00 +31°C° 0,9 mm 3 m/s 754 mmHg 73%
    10:00 +31°C° 1,3 mm 3 m/s 754 mmHg 70%
    11:00 +33°C° 1,3 mm 3 m/s 753 mmHg 67%
    12:00 +34°C° 1,3 mm 3 m/s 752 mmHg 64%
    13:00 +34°C° 0,3 mm 2 m/s 752 mmHg 63%
    14:00 +34°C° 0,3 mm 2 m/s 751 mmHg 63%
    15:00 +34°C° 0,3 mm 2 m/s 751 mmHg 63%
    16:00 +32°C° 0,1 mm 2 m/s 751 mmHg 67%
    17:00 +31°C° 0,1 mm 2 m/s 752 mmHg 71%
    18:00 +29°C° 0,1 mm 2 m/s 752 mmHg 75%
    19:00 +29°C° 0,3 mm 2 m/s 752 mmHg 76%
    20:00 +29°C° 0,3 mm 2 m/s 753 mmHg 78%
    21:00 +28°C° 0,3 mm 2 m/s 753 mmHg 79%
    22:00 +28°C° 1,7 mm 2 m/s 753 mmHg 81%
    23:00 +28°C° 1,7 mm 2 m/s 753 mmHg 82%
    Mostrar mais